Location: Arbon
(43.0005°N, 0.7472°E)
Time: 08:08:19
(UTC+00:00)

Vanguard 2 Rocket - Pass Details

Date: 29 November 2020
Orbit: 554 x 3326 km, 32.9° (Epoch: 28 January)

Event Time Altitude Azimuth Distance (km) Brightness Sun altitude
Rises 13:04:25 0° 277° (W) 6,936 11.6 22.9°
Reaches altitude 10° 13:10:08 10° 270° (W) 5,574 11.3 22.5°
Maximum altitude 13:22:55 32° 216° (SW) 3,030 11.6 21.6°
Drops below altitude 10° 13:31:11 10° 156° (SSE) 3,550 10.6 21.0°
Sets 13:33:57 0° 146° (SE) 4,195 10.7 20.7°
